EW0451 Weather Reports


Display with metric or nautical units.
time (UTC)temp
F
wind
direction
speed
MPH
gust
MPH
rain 1hr
in
rain 24hr
in
rain mn
in
humidity
%
barometer
mb
20260906214529 92 280 20.0 28.0 0.00 0.00 0.00 12 1001.8
20260906213026 91 298 17.0 26.0 0.00 0.00 0.00 13 1002.0
20260906211526 92 285 20.0 32.0 0.00 0.00 0.00 12 1002.2
20260906210022 91 283 16.0 30.0 0.00 0.00 0.00 13 1002.4
20260906204520 91 350 13.0 19.0 0.00 0.00 0.00 14 1002.6
20260906203019 92 299 17.0 32.0 0.00 0.00 0.00 14 1002.6
20260906201517 91 286 18.0 26.0 0.00 0.00 0.00 16 1002.9
20260906200015 90 301 14.0 21.0 0.00 0.00 0.00 18 1002.9
20260906194516 88 257 6.0 28.0 0.00 0.00 0.00 19 1003.3
20260906193010 89 292 9.0 22.0 0.00 0.00 0.00 19 1003.6
20260906191507 89 255 16.0 22.0 0.00 0.00 0.00 19 1003.9
20260906190003 88 287 12.0 20.0 0.00 0.00 0.00 20 1004.3
20260906184602 87 284 5.0 15.0 0.00 0.00 0.00 23 1004.4
20260906183106 86 46 5.0 15.0 0.00 0.00 0.00 24 1004.7
20260906181555 86 312 8.0 16.0 0.00 0.00 0.00 23 1005.0
20260906180050 85 6 10.0 15.0 0.00 0.00 0.00 26 1005.5
20260906174549 84 302 8.0 15.0 0.00 0.00 0.00 26 1005.8
20260906173052 83 297 2.0 15.0 0.00 0.00 0.00 30 1006.1
20260906171545 83 297 9.0 12.0 0.00 0.00 0.00 28 1006.4
20260906170036 82 291 3.0 15.0 0.00 0.00 0.00 30 1006.5
20260906164533 81 271 7.0 12.0 0.00 0.00 0.00 32 1006.7
20260906163030 79 318 1.0 12.0 0.00 0.00 0.00 34 1006.8
20260906161527 78 323 4.0 11.0 0.00 0.00 0.00 39 1006.8
20260906160025 76 5 7.0 13.0 0.00 0.00 0.00 42 1006.9
20260906154520 76 319 6.0 10.0 0.00 0.00 0.00 44 1007.1
20260906153022 74 312 6.0 13.0 0.00 0.00 0.00 46 1007.1
20260906151512 72 278 9.0 14.0 0.00 0.00 0.00 47 1007.1
20260906150014 70 290 10.0 14.0 0.00 0.00 0.00 52 1007.3
20260906144513 69 321 10.0 13.0 0.00 0.00 0.00 52 1007.1
20260906143009 69 5 8.0 13.0 0.00 0.00 0.00 58 1007.3
20260906141503 65 331 7.0 13.0 0.00 0.00 0.00 64 1007.2
20260906140100 64 294 6.0 9.0 0.00 0.00 0.00 63 1007.1
20260906134559 64 310 6.0 8.0 0.00 0.00 0.00 61 1007.0
20260906133117 63 300 3.0 6.0 0.00 0.00 0.00 63 1006.9
20260906131602 61 318 2.0 5.0 0.00 0.00 0.00 65 1006.7
20260906130111 0 0.0 0.0 0.00 0.00 0.00 1006.8
20260906124556 0 0.0 0.0 0.00 0.00 0.00 1006.6
20260906123051 0 0.0 0.0 0.00 0.00 0.00 1006.5
20260906121548 0 0.0 0.0 0.00 0.00 0.00 1006.5
20260906120047 0 0.0 0.0 0.00 0.00 0.00 1006.5
20260906114538 0 0.0 0.0 0.00 0.00 0.00 1006.6
20260906113039 0 0.0 0.0 0.00 0.00 0.00 1006.6
20260906111530 0 0.0 0.0 0.00 0.00 0.00 1006.8
20260906110026 0 0.0 0.0 0.00 0.00 0.00 1006.8
20260906104521 0 0.0 0.0 0.00 0.00 0.00 1006.9
20260906103019 0 0.0 0.0 0.00 0.00 0.00 1006.9
20260906101521 0 0.0 0.0 0.00 0.00 0.00 1006.9
20260906100017 0 0.0 0.0 0.00 0.00 0.00 1007.0
20260906094513 0 0.0 0.0 0.00 0.00 0.00 1006.8
20260906093023 62 267 0.0 0.0 0.00 0.00 0.00 61 1006.3
20260906091507 64 246 0.0 0.0 0.00 0.00 0.00 64 1006.4
20260906090012 63 291 0.0 0.0 0.00 0.00 0.00 59 1006.3
20260906084504 63 74 0.0 0.0 0.00 0.00 0.00 63 1006.3
20260906083102 63 74 0.0 0.0 0.00 0.00 0.00 56 1006.5
20260906081600 65 74 0.0 0.0 0.00 0.00 0.00 53 1006.5
20260906080105 66 74 0.0 0.0 0.00 0.00 0.00 54 1006.6
20260906074556 66 73 0.0 0.0 0.00 0.00 0.00 50 1006.7
20260906073051 67 287 0.0 1.0 0.00 0.00 0.00 49 1006.8
20260906071549 66 293 0.0 0.0 0.00 0.00 0.00 48 1006.8
20260906070047 67 293 0.0 0.0 0.00 0.00 0.00 47 1006.7
20260906064545 67 170 0.0 0.0 0.00 0.00 0.00 46 1006.8
20260906063043 69 199 0.0 0.0 0.00 0.00 0.00 45 1007.0
20260906061547 69 210 1.0 4.0 0.00 0.00 0.00 45 1007.1
20260906060039 69 208 0.0 3.0 0.00 0.00 0.00 46 1007.2
20260906054542 68 194 0.0 5.0 0.00 0.00 0.00 46 1007.2
20260906053034 69 197 3.0 7.0 0.00 0.00 0.00 45 1007.1
20260906051538 69 188 1.0 7.0 0.00 0.00 0.00 44 1007.3
20260906050033 69 221 0.0 1.0 0.00 0.00 0.00 43 1007.3
20260906044532 71 201 0.0 12.0 0.00 0.00 0.00 41 1007.3
20260906043034 71 157 4.0 8.0 0.00 0.00 0.00 41 1007.3
20260906041544 71 293 0.0 7.0 0.00 0.00 0.00 40 1007.4
20260906040027 72 188 0.0 7.0 0.00 0.00 0.00 39 1007.2
20260906034525 73 146 2.0 9.0 0.00 0.00 0.00 37 1007.0
20260906033025 74 266 6.0 12.0 0.00 0.00 0.00 36 1007.0
20260906031525 75 274 2.0 9.0 0.00 0.00 0.00 34 1006.9
20260906030032 75 283 5.0 11.0 0.00 0.00 0.00 32 1006.6
20260906024523 75 240 3.0 10.0 0.00 0.00 0.00 31 1006.3
20260906023024 76 278 5.0 11.0 0.00 0.00 0.00 29 1006.2
20260906021523 76 276 0.0 5.0 0.00 0.00 0.00 29 1006.3
20260906020022 76 276 3.0 6.0 0.00 0.00 0.00 28 1006.0
20260906014538 78 263 4.0 8.0 0.00 0.00 0.00 27 1005.9
20260906013024 79 272 6.0 9.0 0.00 0.00 0.00 25 1005.6
20260906011520 81 248 4.0 8.0 0.00 0.00 0.00 25 1005.6
20260906010041 83 262 9.0 14.0 0.00 0.00 0.00 23 1005.5
20260906004520 84 294 8.0 15.0 0.00 0.00 0.00 23 1005.6
20260906003018 84 321 7.0 15.0 0.00 0.00 0.00 22 1005.6
20260906001525 85 249 11.0 15.0 0.00 0.00 0.00 22 1005.5
20260906000017 85 262 9.0 16.0 0.00 0.00 0.00 22 1005.4
20260905234517 86 321 7.0 15.0 0.00 0.00 0.00 21 1005.2
20260905233015 86 188 10.0 14.0 0.00 0.00 0.00 21 1005.2
20260905231525 87 100 8.0 17.0 0.00 0.00 0.00 20 1005.2
20260905230013 88 177 0.0 5.0 0.00 0.00 0.00 19 1005.1
20260905224518 88 264 1.0 4.0 0.00 0.00 0.00 19 1005.2
20260905223020 88 233 0.0 6.0 0.00 0.00 0.00 19 1005.2
20260905221511 88 264 7.0 13.0 0.00 0.00 0.00 19 1005.4
20260905220010 89 79 3.0 12.0 0.00 0.00 0.00 19 1005.5